This is the latest recevied weather packets stored in our database for station/object N6GPM. If no packets are shown the sender has not sent any weather packets the latest 10 day(s).
| Time | Temp. | Humidity | Pressure | Rain* | Wind** | Luminosity | Snow |
|---|---|---|---|---|---|---|---|
| 1777471334 | 12.22° C | 76% | 1020.8 hPa | 0 mm | - | 70 W/m² | - |
| 1777469816 | 10.56° C | 79% | 1021.3 hPa | 0 mm | - | 28 W/m² | - |
| 1777469512 | 10.56° C | 79% | 1021.3 hPa | 0 mm | - | 25 W/m² | - |
| 1777469207 | 10.56° C | 79% | 1020.9 hPa | 0 mm | - | 19 W/m² | - |
| 1777468907 | 10° C | 79% | 1020.7 hPa | 0 mm | - | 14 W/m² | - |
| 1777468604 | 10° C | 80% | 1020.8 hPa | 0 mm | - | 11 W/m² | - |
| 1777468301 | 10° C | 80% | 1020.7 hPa | 0 mm | - | 6 W/m² | - |
| 1777465568 | 10° C | 80% | 1020.5 hPa | 0 mm | - | 0 W/m² | - |
| 1777464349 | 9.44° C | 79% | 1020.5 hPa | 0 mm | - | 0 W/m² | - |
| 1777462827 | 10° C | 79% | 1020.5 hPa | 0 mm | - | 0 W/m² | - |
| 1777462522 | 10° C | 79% | 1020.2 hPa | 0 mm | - | 0 W/m² | - |
| 1777462218 | 10° C | 79% | 1020.5 hPa | 0 mm | - | 0 W/m² | - |
| 1777461612 | 10° C | 79% | 1020.3 hPa | 0 mm | - | 0 W/m² | - |
| 1777461307 | 10° C | 79% | 1020.3 hPa | 0 mm | - | 0 W/m² | - |
| 1777460699 | 10.56° C | 77% | 1020.2 hPa | 0 mm | - | 0 W/m² | - |
| 1777460394 | 10.56° C | 77% | 1020.3 hPa | 0 mm | - | 0 W/m² | - |
| 1777459485 | 10.56° C | 77% | 1020 hPa | 0 mm | - | 0 W/m² | - |
| 1777459183 | 10.56° C | 77% | 1020.1 hPa | 0 mm | - | 0 W/m² | - |
| 1777458879 | 11.11° C | 76% | 1020 hPa | 0 mm | - | 0 W/m² | - |
| 1777458576 | 11.11° C | 76% | 1020 hPa | 0 mm | - | 0 W/m² | - |
| 1777457963 | 11.11° C | 75% | 1020.1 hPa | 0 mm | - | 0 W/m² | - |
| 1777457659 | 11.11° C | 75% | 1020.3 hPa | 0 mm | - | 0 W/m² | - |
| 1777457358 | 11.11° C | 75% | 1020 hPa | 0 mm | - | 0 W/m² | - |
| 1777457055 | 11.11° C | 75% | 1019.9 hPa | 0 mm | - | 0 W/m² | - |
| 1777456750 | 10.56° C | 75% | 1020 hPa | 0 mm | - | 0 W/m² | - |
* Rain latest hour (hover to see other rain measurements)
** Current wind speed in m/s (hover to see current wind gust speed)